SCP
0 0 0 0 0 0 0 0 0 0 0 0 0 0 0 0 0 0 0 0 0 0 0 0 0 0 0 0 0 0 0 0 0 0 0 0 0 0
0 0 0 0 0 0 0 0 0 0 0 0 0 0 0 0 0 0 0 0 0 0 0 0 0 0 0 0 0 0 0 0 0 0 0 0 0 0
0 0 0 0 0 0 0 0 0 0 0 0 0 0 0 0 0 0 0 0 0 0 0 0 0 0 0 0 0 0 0 0 0 0 0 0 0 0
0 0 0 0 0 0 0 0 0 0 0 0 0 0 0 0 0 0 0 0 0 0 0 0 0 0 0 0 0 0 0 0 0 0 0 0 0 0
0 0 0 0 0 0 0 0 0 0 0 0 0 0 0 0 0 0 0 0 0 0 0 0 0 0 0 0 0 0 0 0 0 0 0 0 0 0
0 0 0 0 0 0 0 0 0 0 0 0 0 0 0 0 0 0 0 0 0 0 0 0 -0 -0 -0 -0 0 0 0 0 0 0 0 0 0 0
0 0 0 0 0 0 0 0 0 0 0 0 0 0 0 0 0 0 0 0 0 -0 -0 -0 0 0 0 0 0 0 0 0 0 0 0 0 0 0
0 0 0 0 0 0 0 0 0 0 0 0 0 0 0 0 0 0 0 0 -0 -0 0 0 0 0 0 0 0 0 0 -0 -0 0 0 0 0 0
0 0 0 0 0 0 0 0 0 0 0 0 0 0 0 0 0 0 0 0 0 0 -0 0 0 0 0 0 0 -0 -0 -0 0 0 0 0 0 0
0 0 0 0 0 0 0 0 0 0 0 0 0 0 -0 -0 -0 0 0 0 0 0 -0 0 0 0 0 0 -0 -0 -0 -0 -0 0 0 0 0 0
0 0 0 0 0 0 0 0 0 0 0 0 -0 -0 -0 -0 -0 0 0 0 0 0 -0 0 0 0 0 -0 -0 -0 -0 -0 0 0 -0 0 0 0
0 0 0 0 0 0 0 0 0 0 0 0 0 0 0 0 0 0 0 0 0 0 0 0 0 0 -0 -0 0 0 0 0 -0 -0 -0 0 0 0
0 0 0 0 0 0 0 0 0 0 0 0 0 0 0 0 0 0 0 0 0 0 0 0 0 0 0 0 0 0 0 0 0 0 0 0 0 0
0 0 0 -0 0 -0 0 0 -0 0 0 0 0 0 0 0 0 0 0 0 0 0 0 0 0 0 0 0 0 0 0 0 0 0 0 0 0 0
0 0 0 0 0 0 0 0 0 0 0 0 0 0 0 0 0 0 0 0 0 0 0 0 0 0 0 0 0 0 0 0 0 0 0 0 0 0
0 0 0 0 0 0 0 0 0 0 0 0 0 0 0 0 0 0 0 0 0 0 0 0 0 0 0 0 0 0 0 0 0 0 0 0 0 0
0 0 0 0 0 0 0 0 0 0 0 0 0 0 0 0 0 0 0 0 0 0 0 0 0 0 0 0 0 0 0 0 0 0 0 0 0 0
0 0 0 0 0 0 0 0 0 0 0 0 0 0 0 0 0 0 0 0 0 0 0 0 0 0 0 0 0 0 0 0 0 0 0 0 0 0
0 0 0 0 0 0 0 0 0 0 0 0 0 0 0 0 0 0 0 0 0 0 0 0 0 0 0 0 0 0 0 0 0 0 0 0 0 0
0 0 0 0 0 0 0 0 0 0 0 0 0 0 0 0 0 0 0 0 0 0 0 0 0 0 0 0 0 0 0 0 0 0 0 0 0 0
0 0 0 0 0 0 0 0 0 0 0 0 0 0 0 0 0 0 0 0 0 0 0 0 0 0 0 0 0 0 0 0 0 0 0 0 0 0
0 0 0 0 0 0 0 0 0 0 0 0 0 0 0 0 0 0 0 0 0 0 0 0 0 0 0 0 0 0 0 0 0 0 0 0 0 0
0 0 0 0 0 0 0 0 0 0 0 0 0 0 0 0 0 0 0 0 0 0 0 0 0 0 0 0 0 0 0 0 0 0 0 0 0 0
Wind_Speed_500mb
52 53 58 52 45 46 46 62 52 30 33 33 26 24 21 17 19 23 26 30 35 40 45 48 52 57 62 65 66 67 69 67 62 60 63 66 66 66
38 37 38 38 36 34 38 41 32 22 23 28 23 17 14 18 20 25 30 35 39 43 49 52 56 60 62 62 67 70 71 70 65 63 66 66 66 69
56 47 45 38 35 34 28 22 17 16 17 26 22 16 14 19 22 29 35 39 42 46 52 55 57 58 59 62 64 65 64 64 66 67 70 74 74 72
48 42 46 36 32 33 28 23 21 19 16 16 13 12 16 22 27 32 40 47 49 50 57 59 58 58 63 62 64 64 60 62 65 72 73 74 78 73
52 49 47 38 35 32 25 19 16 12 8 4 2 9 17 27 35 38 44 52 56 55 59 53 57 63 55 55 54 51 57 63 67 70 75 75 71 66
47 44 42 36 31 26 22 18 15 12 12 10 12 18 24 32 41 48 49 56 63 62 59 63 75 77 58 54 51 58 64 66 65 66 68 69 68 69
44 37 36 33 32 25 22 20 16 16 13 15 20 27 33 39 45 52 61 67 70 57 63 80 82 75 64 62 67 69 71 69 61 58 63 70 70 72
37 34 32 28 24 20 18 18 20 22 21 24 25 29 35 42 50 55 59 60 59 61 84 93 76 70 69 82 88 91 84 62 51 63 74 76 76 76
30 27 24 21 19 16 14 15 16 17 19 22 28 33 38 45 53 58 57 62 65 74 76 94 68 70 84 86 97 87 61 52 74 74 82 87 85 83
20 18 17 16 15 16 15 17 19 22 27 30 33 39 44 46 50 54 62 69 74 72 65 86 74 94 106 104 84 66 69 87 83 91 92 85 87 86
15 13 12 13 16 17 19 21 25 27 32 37 40 41 43 47 51 59 61 65 75 61 64 74 79 112 104 79 57 71 91 74 86 96 95 89 86 87
13 15 16 16 17 20 24 28 35 38 40 43 46 49 50 49 49 51 54 59 64 77 58 83 86 84 93 69 65 96 96 107 101 104 97 92 79 77
12 13 16 19 24 27 31 34 39 41 46 52 53 55 56 58 59 57 57 61 65 74 77 80 92 99 71 96 76 104 104 107 112 106 100 81 65 66
14 16 19 24 27 31 35 40 45 47 53 56 59 59 61 61 62 62 60 64 65 75 78 78 93 91 90 105 112 107 109 108 106 110 90 72 74 72
21 26 30 33 35 37 40 45 48 52 57 61 64 65 66 66 67 68 65 68 72 72 77 86 87 85 85 95 111 104 93 112 96 78 80 84 90 85
25 29 33 36 38 41 44 47 50 54 59 63 66 68 68 69 71 71 75 75 84 84 76 85 80 80 88 91 98 111 104 101 105 96 96 100 95 90
28 34 38 43 45 47 49 51 54 57 62 66 70 73 73 74 74 73 76 80 86 96 98 86 78 84 86 87 99 98 97 99 95 98 94 102 99 95
37 41 45 50 53 56 58 58 60 63 65 70 73 74 75 76 78 77 77 82 92 99 101 94 93 93 89 84 73 84 83 98 98 96 89 83 99 88
40 46 51 55 58 61 63 64 65 65 68 71 76 76 77 79 81 83 83 88 96 101 99 94 92 80 81 86 77 54 67 95 97 97 94 86 90 105
43 51 56 59 63 65 66 68 68 69 72 75 79 78 78 81 84 85 88 94 101 102 99 95 88 81 71 89 106 109 71 81 86 97 107 98 98 99
47 55 61 65 68 70 71 73 73 75 76 79 81 81 80 82 86 88 93 99 101 98 99 95 91 79 86 90 89 109 99 67 73 89 97 96 101 102
57 59 67 70 73 75 75 75 77 78 80 83 85 84 83 84 89 92 97 101 98 99 101 100 94 88 79 73 91 103 110 108 93 78 76 76 81 74
65 65 72 76 75 77 77 77 79 80 82 86 87 86 86 89 90 95 100 96 100 100 100 101 97 86 86 85 89 98 95 100 96 99 97 62 63 62
Wind_Direction_500mb
204 212 218 218 211 208 210 202 206 166 194 204 207 216 235 264 279 277 281 289 294 295 297 300 303 303 305 307 307 305 302 301 298 296 295 296 293 290
165 165 162 146 148 152 161 172 186 196 185 201 208 231 247 255 271 287 292 294 295 299 301 305 306 308 310 311 309 305 301 298 295 294 293 290 289 289
133 133 129 129 131 136 145 158 175 194 201 193 195 215 250 273 284 291 294 297 302 306 310 312 315 314 312 309 302 297 296 295 296 297 295 294 291 288
105 108 100 98 105 106 109 122 130 133 151 165 190 234 272 287 295 304 307 309 310 313 310 313 313 314 312 305 298 297 298 299 300 298 294 290 290 289
108 112 111 108 105 102 102 106 102 106 119 134 199 297 310 312 313 311 311 310 311 311 310 309 309 309 308 299 300 300 306 304 305 302 297 292 290 288
110 105 106 106 101 103 98 92 84 70 48 21 355 335 324 317 318 316 313 313 312 316 318 318 322 320 321 314 312 315 317 312 307 299 294 293 291 288
103 100 98 96 90 80 73 62 54 44 23 359 347 336 325 322 321 322 323 322 321 330 329 323 319 315 321 318 320 324 320 319 308 303 302 298 295 293
95 91 84 75 71 61 50 37 26 20 6 355 338 328 325 327 328 327 326 322 327 325 322 319 318 317 322 324 324 327 326 318 314 309 307 304 296 291
86 81 74 66 55 43 30 18 7 356 351 340 330 331 332 332 329 326 319 316 310 314 324 314 317 316 324 313 319 322 324 315 317 314 313 310 301 293
71 64 55 46 31 14 8 1 354 353 348 343 336 335 335 330 322 315 314 313 312 320 333 307 317 319 320 317 317 319 320 321 321 320 315 299 292 291
58 46 28 12 357 356 351 346 342 341 342 342 339 333 330 329 323 315 319 312 316 316 330 317 317 319 317 321 313 317 320 311 310 315 314 304 298 295
25 13 0 351 339 344 346 340 340 337 339 336 334 333 328 325 321 315 315 315 320 318 319 314 312 321 316 309 300 311 314 316 318 318 313 308 300 294
358 345 337 338 344 346 342 337 332 334 332 330 330 328 328 328 326 323 318 312 311 305 318 315 307 313 302 306 304 311 316 316 321 316 310 307 302 294
341 336 334 340 342 339 336 333 336 333 329 328 327 327 325 325 322 319 313 305 305 305 311 311 306 310 308 306 304 313 312 315 319 312 308 304 300 296
346 343 342 337 334 332 330 329 328 327 327 326 325 324 321 320 319 315 310 307 307 309 313 315 314 312 307 302 302 304 308 315 313 309 305 300 300 297
336 335 331 329 328 325 324 323 324 324 324 324 322 320 319 321 320 317 314 315 312 314 316 318 315 312 307 306 307 305 311 306 311 312 311 307 303 301
334 333 332 330 329 326 324 322 320 321 324 325 324 321 320 319 318 316 314 314 313 316 319 321 318 313 309 309 305 307 311 309 311 309 305 303 303 301
329 329 330 330 329 326 324 323 322 321 323 324 322 319 317 316 315 315 314 314 314 317 318 321 321 316 310 304 299 294 295 301 302 299 293 289 295 315
319 323 325 326 325 323 320 318 318 318 317 319 319 318 316 315 314 315 316 316 316 318 318 318 318 306 298 292 305 293 289 298 295 298 299 289 285 307
311 316 319 319 318 318 317 315 314 315 315 317 318 317 315 313 314 314 316 316 317 317 314 317 316 311 290 293 301 305 291 286 291 294 300 300 296 296
302 312 315 316 315 315 314 313 312 314 314 316 317 315 315 314 314 315 316 317 317 315 310 310 317 311 305 308 295 307 317 293 282 281 290 289 290 294
295 300 310 312 313 313 312 311 311 312 313 315 316 314 315 314 313 315 317 315 314 313 311 314 321 317 306 290 288 294 307 323 315 295 288 285 287 293
292 293 300 309 311 310 310 309 308 310 312 315 314 313 314 313 314 315 315 313 313 313 315 316 317 309 298 294 288 293 298 300 300 304 313 306 303 296
Wind_Speed_850mb
52 53 58 52 45 46 46 62 52 30 33 33 26 24 21 17 19 23 26 30 35 40 45 48 52 57 62 65 66 67 69 67 62 60 63 66 66 66
38 37 38 38 36 34 38 41 32 22 23 28 23 17 14 18 20 25 30 35 39 43 49 52 56 60 62 62 67 70 71 70 65 63 66 66 66 69
56 47 45 38 35 34 28 22 17 16 17 26 22 16 14 19 22 29 35 39 42 46 52 55 57 58 59 62 64 65 64 64 66 67 70 74 74 72
48 42 46 36 32 33 28 23 21 19 16 16 13 12 16 22 27 32 40 47 49 50 57 59 58 58 63 62 64 64 60 62 65 72 73 74 78 73
52 49 47 38 35 32 25 19 16 12 8 4 2 9 17 27 35 38 44 52 56 55 59 53 57 63 55 55 54 51 57 63 67 70 75 75 71 66
47 44 42 36 31 26 22 18 15 12 12 10 12 18 24 32 41 48 49 56 63 62 59 63 75 77 58 54 51 58 64 66 65 66 68 69 68 69
44 37 36 33 32 25 22 20 16 16 13 15 20 27 33 39 45 52 61 67 70 57 63 80 82 75 64 62 67 69 71 69 61 58 63 70 70 72
37 34 32 28 24 20 18 18 20 22 21 24 25 29 35 42 50 55 59 60 59 61 84 93 76 70 69 82 88 91 84 62 51 63 74 76 76 76
30 27 24 21 19 16 14 15 16 17 19 22 28 33 38 45 53 58 57 62 65 74 76 94 68 70 84 86 97 87 61 52 74 74 82 87 85 83
20 18 17 16 15 16 15 17 19 22 27 30 33 39 44 46 50 54 62 69 74 72 65 86 74 94 106 104 84 66 69 87 83 91 92 85 87 86
15 13 12 13 16 17 19 21 25 27 32 37 40 41 43 47 51 59 61 65 75 61 64 74 79 112 104 79 57 71 91 74 86 96 95 89 86 87
13 15 16 16 17 20 24 28 35 38 40 43 46 49 50 49 49 51 54 59 64 77 58 83 86 84 93 69 65 96 96 107 101 104 97 92 79 77
12 13 16 19 24 27 31 34 39 41 46 52 53 55 56 58 59 57 57 61 65 74 77 80 92 99 71 96 76 104 104 107 112 106 100 81 65 66
14 16 19 24 27 31 35 40 45 47 53 56 59 59 61 61 62 62 60 64 65 75 78 78 93 91 90 105 112 107 109 108 106 110 90 72 74 72
21 26 30 33 35 37 40 45 48 52 57 61 64 65 66 66 67 68 65 68 72 72 77 86 87 85 85 95 111 104 93 112 96 78 80 84 90 85
25 29 33 36 38 41 44 47 50 54 59 63 66 68 68 69 71 71 75 75 84 84 76 85 80 80 88 91 98 111 104 101 105 96 96 100 95 90
28 34 38 43 45 47 49 51 54 57 62 66 70 73 73 74 74 73 76 80 86 96 98 86 78 84 86 87 99 98 97 99 95 98 94 102 99 95
37 41 45 50 53 56 58 58 60 63 65 70 73 74 75 76 78 77 77 82 92 99 101 94 93 93 89 84 73 84 83 98 98 96 89 83 99 88
40 46 51 55 58 61 63 64 65 65 68 71 76 76 77 79 81 83 83 88 96 101 99 94 92 80 81 86 77 54 67 95 97 97 94 86 90 105
43 51 56 59 63 65 66 68 68 69 72 75 79 78 78 81 84 85 88 94 101 102 99 95 88 81 71 89 106 109 71 81 86 97 107 98 98 99
47 55 61 65 68 70 71 73 73 75 76 79 81 81 80 82 86 88 93 99 101 98 99 95 91 79 86 90 89 109 99 67 73 89 97 96 101 102
57 59 67 70 73 75 75 75 77 78 80 83 85 84 83 84 89 92 97 101 98 99 101 100 94 88 79 73 91 103 110 108 93 78 76 76 81 74
65 65 72 76 75 77 77 77 79 80 82 86 87 86 86 89 90 95 100 96 100 100 100 101 97 86 86 85 89 98 95 100 96 99 97 62 63 62
Wind_Direction_850mb
204 212 218 218 211 208 210 202 206 166 194 204 207 216 235 264 279 277 281 289 294 295 297 300 303 303 305 307 307 305 302 301 298 296 295 296 293 290
165 165 162 146 148 152 161 172 186 196 185 201 208 231 247 255 271 287 292 294 295 299 301 305 306 308 310 311 309 305 301 298 295 294 293 290 289 289
133 133 129 129 131 136 145 158 175 194 201 193 195 215 250 273 284 291 294 297 302 306 310 312 315 314 312 309 302 297 296 295 296 297 295 294 291 288
105 108 100 98 105 106 109 122 130 133 151 165 190 234 272 287 295 304 307 309 310 313 310 313 313 314 312 305 298 297 298 299 300 298 294 290 290 289
108 112 111 108 105 102 102 106 102 106 119 134 199 297 310 312 313 311 311 310 311 311 310 309 309 309 308 299 300 300 306 304 305 302 297 292 290 288
110 105 106 106 101 103 98 92 84 70 48 21 355 335 324 317 318 316 313 313 312 316 318 318 322 320 321 314 312 315 317 312 307 299 294 293 291 288
103 100 98 96 90 80 73 62 54 44 23 359 347 336 325 322 321 322 323 322 321 330 329 323 319 315 321 318 320 324 320 319 308 303 302 298 295 293
95 91 84 75 71 61 50 37 26 20 6 355 338 328 325 327 328 327 326 322 327 325 322 319 318 317 322 324 324 327 326 318 314 309 307 304 296 291
86 81 74 66 55 43 30 18 7 356 351 340 330 331 332 332 329 326 319 316 310 314 324 314 317 316 324 313 319 322 324 315 317 314 313 310 301 293
71 64 55 46 31 14 8 1 354 353 348 343 336 335 335 330 322 315 314 313 312 320 333 307 317 319 320 317 317 319 320 321 321 320 315 299 292 291
58 46 28 12 357 356 351 346 342 341 342 342 339 333 330 329 323 315 319 312 316 316 330 317 317 319 317 321 313 317 320 311 310 315 314 304 298 295
25 13 0 351 339 344 346 340 340 337 339 336 334 333 328 325 321 315 315 315 320 318 319 314 312 321 316 309 300 311 314 316 318 318 313 308 300 294
358 345 337 338 344 346 342 337 332 334 332 330 330 328 328 328 326 323 318 312 311 305 318 315 307 313 302 306 304 311 316 316 321 316 310 307 302 294
341 336 334 340 342 339 336 333 336 333 329 328 327 327 325 325 322 319 313 305 305 305 311 311 306 310 308 306 304 313 312 315 319 312 308 304 300 296
346 343 342 337 334 332 330 329 328 327 327 326 325 324 321 320 319 315 310 307 307 309 313 315 314 312 307 302 302 304 308 315 313 309 305 300 300 297
336 335 331 329 328 325 324 323 324 324 324 324 322 320 319 321 320 317 314 315 312 314 316 318 315 312 307 306 307 305 311 306 311 312 311 307 303 301
334 333 332 330 329 326 324 322 320 321 324 325 324 321 320 319 318 316 314 314 313 316 319 321 318 313 309 309 305 307 311 309 311 309 305 303 303 301
329 329 330 330 329 326 324 323 322 321 323 324 322 319 317 316 315 315 314 314 314 317 318 321 321 316 310 304 299 294 295 301 302 299 293 289 295 315
319 323 325 326 325 323 320 318 318 318 317 319 319 318 316 315 314 315 316 316 316 318 318 318 318 306 298 292 305 293 289 298 295 298 299 289 285 307
311 316 319 319 318 318 317 315 314 315 315 317 318 317 315 313 314 314 316 316 317 317 314 317 316 311 290 293 301 305 291 286 291 294 300 300 296 296
302 312 315 316 315 315 314 313 312 314 314 316 317 315 315 314 314 315 316 317 317 315 310 310 317 311 305 308 295 307 317 293 282 281 290 289 290 294
295 300 310 312 313 313 312 311 311 312 313 315 316 314 315 314 313 315 317 315 314 313 311 314 321 317 306 290 288 294 307 323 315 295 288 285 287 293
292 293 300 309 311 310 310 309 308 310 312 315 314 313 314 313 314 315 315 313 313 313 315 316 317 309 298 294 288 293 298 300 300 304 313 306 303 296